Погода Кики Акки

Погода Кики Акки : погода сейчас, прогноз погоды и архив. Всё, что Вы хотите узнать о погоде Кики Акки!

Хотите узнать прогноз погоды Кики Акки? Тогда Вам сюда: Погода Кики Акки

Поиск расширенной информации на нашем сайте:

Другие новости

Новости СМИ2

Главная страница сайта

Новости сайта

03.07.2017

Напоминаем, что на нашем специализированном сайте Метеоцентр.Азия вы можете получить высокодетализированные автоматические прогнозы погоды по пунктам России, СНГ и мира в авиационном формате (включающие направление и скорость ветра, видимость, явления погоды, количество и форму облачности, нижнюю и верхнюю границу облачности).

Рекомендуем: Рыбалка сайт о рыбалке.

Погода Кики Акки - сегодня

Время (UTC), дата Ветер
(°,м/с) 
Видим.   Явления Облачность Т
(°С)
Тd
(°С)
f(%) Тe
(°С)
Pmin
(гПа)
dP
(гПа)
Po
(мм)
O2
(г/м3)
Тmin Tmax R s Состояние
почвы
18 15.04.18 250 (З) 10 км  {ливн. осадки}  9/6 300 м кучево-дожд., средняя 
[Cb cap|Ac trans]
-7.3 -9.4 85 -10  993.6  0.5  742  308           
00 16.04.18 280 (З) 20000 м  {ливн. осадки}  10/3 300 м кучево-дожд., верхняя 
[Cb cap|Ci sp]
-14 -16.5 81 -18  996.7  2.1  744  317           
03 16.04.18 270 (З) 20000 м    10/0 верхняя 
[Ci fib]
-13.7 -18.1 69 -17  998.1  1.4  745  318  -14.9    0.3  79  неравномерный
сухой снег
100% 
06 16.04.18 250 (З) 20000 м    10/0 верхняя 
[Ci fib]
-9.6 -16.6 57 -13  999.6  1.5  746  313           
09 16.04.18 240 (ЮЗ) 20000 м    ясно 
-8.4 -16.2 53 -11  1001  1.4  747  312           
12 16.04.18 270 (З) 20000 м    ясно 
-9.4 -17.2 53 -11  1002.1  1.1  748  314           
15 16.04.18 340 (С) 20000 м    ясно 
-13.5 -18.7 65 -13  1002.9  0.7  749  319    -8       
18 16.04.18 320 (СЗ) 20000 м    ясно 
-18 -20.3 82 -18  1002.9  -0.1  749  325           
00 17.04.18 340 (С) 20000 м  {снег}  10/0 верхняя 
[Ci fib]
-19.4 -22 80 -22  1004  0.6  749  327           
03 17.04.18 310 (СЗ) 20000 м    10/0 верхняя 
[Ci fib]
-17 -21.4 69 -21  1004.5  0.6  750  324  -21    0.0  79  неравномерный
сухой снег
100% 
06 17.04.18 300 (СЗ) 20000 м    10/0 верхняя 
[Cs]
-12.9 -19.7 57 -17  1005.6  1.2  751  319           
09 17.04.18 310 (СЗ) 20000 м    ясно 
-10.5 -18 54 -15  1007.4  1.8  752  317           
12 17.04.18 320 (СЗ) 20000 м    3/0 средняя 
[Ac trans]
-11.5 -18.1 58 -16  1009.9  2.5  754  319           
18 17.04.18 310 (СЗ) 20000 м    ясно 
-16.6 -20.1 74 -19  1012.9  1.1  756  326           
21 17.04.18 300 (СЗ) 4000 м  слаб. снег  10/0 верхняя 
[Cs]
-16.1 -19.4 76 -18  1013.7  0.9  757  326           
00 18.04.18 290 (З) 20000 м  {снег}  10/0 верхняя 
[Ci fib]
-19.6 -22 81 -22  1015.5  1.7  758  331           
03 18.04.18 240 (ЮЗ) 20000 м    10/0 верхняя 
[Ci fib]
-16.2 -20.8 68 -19  1016.6  1.1  759  327  -19.7    0.0  79  неравномерный
сухой снег
100% 
06 18.04.18 240 (ЮЗ) 20000 м    10/0 средняя, верхняя 
[Ac trans|Ci fib]
-11.6 -18.3 58 -15  1017.3  0.7  760  321           
09 18.04.18 250 (З) 20000 м    10/0 верхняя 
[Ci fib]
-8.9 -18.1 47 -13  1016.9  -0.3  759  318           
12 18.04.18 240 (ЮЗ) 20000 м    4/0 верхняя 
[Ci fib]
-8.3 -17.8 46 -11  1016.1  -0.9  759  317           
18 18.04.18 190 (Ю) 20000 м    10/0 верхняя 
[Ci fib]
-13.1 -20.3 55 -15  1013.8  -1.5  757  322           
21 18.04.18 170 (Ю) 20000 м    10/0 верхняя 
[Cs]
-13.6 -19.2 63 -16  1011.2  -2.6  755  322           
00 19.04.18 170 (Ю) 20000 м    10/0 средняя 
[Ac As]
-11.7 -18.5 57 -15  1008.2  -3  753  318           
03 19.04.18 170 (Ю) 20000 м    10/0 средняя 
[Ac trans]
-8.3 -15.6 56 -12  1005.6  -2.5  751  313  -13.6      78  неравномерный
сухой снег
100% 
15 19.04.18 170 (Ю) 4000 м  слаб. ливневой снег  10/10 540 м кучево-дожд. 
[Cb cap]
-2.3 -3.4 92 -4  1000.6  -1.3  747  304    -2     
Время (UTC), дата Ветер
(°,м/с) 
Видим.   Явления Облачность Т
(°С)
Тd
(°С)
f(%) Тe
(°С)
Pmin
(гПа)
dP
(гПа)
Po
(мм)
O2
(г/м3)
Тmin Tmax R s Состояние
почвы

Для получения пояснительной информации подведите курсор к названию столбца.

ПОГОДА Кики Акки - архив

Всё, что Вы хотите узнать о погоде Кики Акки - удобно и подробно!

Выберите нужную дату (начиная с 1 января 2015* года) и нажмите кнопку "Найти".
Будут отображены архивные сводки погоды по пункту Кики Акки, начиная с указанной даты.


Отображать данные в формате CSV (для использования в таблицах Excel)


Внимание! Наш архив погоды предназначен исключительно для личного некоммерческого использования в познавательных целях. Если Вам необходимы официальные справки о состоянии погоды (для производственных, юридических, коммерческих и т.п. целей), обращайтесь в органы Росгидромета.

*Примечание: данная дата относится к архиву по метеостанциям СССР (Россия, СНГ, Балтия).
Архив по метеостанциям Зарубежной Европы и Азии (кроме Китая) хранится 10 дней, по другим регионам земного шара (Китай, Африка, Америка, Австралия, Океания) - 1 день.

Кики Акки - район местоположения метеостанции


Название, широта, долгота, высота метеостанции:
Кики Акки (Толька) 63.8°ш. 82.7°д. 33 м над ур. моря [Российская Федерация]

Дополнительная информация

В oтличие oт бoльшинства пoгoдных сайтoв мы публикуем пoдрoбную метеoинфoрмацию в детальнoм прoфессиoнальнoм фoрмате.

Характеристики температуры и влажнoсти вoздуха измеряются на высoте 2 м в тени вдали oт зданий и деревьев.
Скoрoсть ветра измеряется на высoте 10 м (на урoвне рoста челoвека скoрoсть ветра ниже в 1.5-2 раза). Если метеoстанция нахoдится в гoрoде или в лесу, тo скoрoсть ветра занижена на 2-4 м/с пo сравнению с oткрытым местoм. Скoрoсть ветра над акватoриями крупных рек и oзёр, а также на вершинах хoлмoв на 2-5 м/с выше, чем в oбычных услoвиях.
Атмoсфернoе давление в разных тoчках местнoсти мoжет значительнo oтличаться oт давления на метеoстанции, в зависимoсти oт услoвий рельефа (при пoдъёме на 10 м давление пoнижается примернo на 1 мм рт.ст.).